Time,TemperatureF,DewpointF,PressureIn,WindDirection,WindDirectionDegrees,WindSpeedMPH,WindSpeedGustMPH,Humidity,HourlyPrecipIn,Conditions,Clouds,dailyrainin,SoftwareType,DateUTC
2013-10-11 00:14:00,63.2,53.0,29.10,SE,127,3.0,6.0,69,0.00,,,0.00,weatherlink.com 1.10,2013-10-11 05:14:00,
2013-10-11 00:29:00,63.2,53.0,29.10,ENE,71,2.0,5.0,69,0.00,,,0.00,weatherlink.com 1.10,2013-10-11 05:29:00,
2013-10-11 00:44:00,62.9,53.0,29.10,ENE,63,0.0,6.0,69,0.00,,,0.00,weatherlink.com 1.10,2013-10-11 05:44:00,
2013-10-11 00:59:00,62.0,53.0,29.10,ESE,112,1.0,3.0,72,0.00,,,0.00,weatherlink.com 1.10,2013-10-11 05:59:00,
2013-10-11 01:14:00,61.4,53.0,29.11,SE,130,1.0,4.0,73,0.00,,,0.00,weatherlink.com 1.10,2013-10-11 06:14:00,
2013-10-11 01:29:00,61.1,53.0,29.11,East,97,0.0,4.0,74,0.00,,,0.00,weatherlink.com 1.10,2013-10-11 06:29:00,
2013-10-11 01:44:00,60.6,52.0,29.11,South,191,0.0,3.0,74,0.00,,,0.00,weatherlink.com 1.10,2013-10-11 06:44:00,
2013-10-11 01:59:00,60.0,52.0,29.11,WSW,240,0.0,1.0,76,0.00,,,0.00,weatherlink.com 1.10,2013-10-11 06:59:00,
2013-10-11 02:14:00,59.5,52.0,29.11,SSW,205,0.0,1.0,77,0.00,,,0.00,weatherlink.com 1.10,2013-10-11 07:14:00,
2013-10-11 02:29:00,59.4,53.0,29.10,ESE,102,0.0,1.0,78,0.00,,,0.00,weatherlink.com 1.10,2013-10-11 07:29:00,
2013-10-11 02:44:00,59.1,52.0,29.10,SSE,168,0.0,1.0,78,0.00,,,0.00,weatherlink.com 1.10,2013-10-11 07:44:00,
2013-10-11 02:59:00,58.8,52.0,29.10,South,183,0.0,1.0,79,0.00,,,0.00,weatherlink.com 1.10,2013-10-11 07:59:00,
2013-10-11 03:14:00,58.5,52.0,29.10,ESE,107,0.0,2.0,80,0.00,,,0.00,weatherlink.com 1.10,2013-10-11 08:14:00,
2013-10-11 03:30:00,58.2,52.0,29.10,ESE,113,0.0,1.0,81,0.00,,,0.00,weatherlink.com 1.10,2013-10-11 08:30:00,
2013-10-11 03:44:00,58.2,52.0,29.10,NNE,19,0.0,2.0,81,0.00,,,0.00,weatherlink.com 1.10,2013-10-11 08:44:00,
2013-10-11 03:59:00,58.2,52.0,29.10,East,100,0.0,1.0,81,0.00,,,0.00,weatherlink.com 1.10,2013-10-11 08:59:00,
2013-10-11 04:14:00,57.9,52.0,29.10,NNE,30,0.0,3.0,82,0.00,,,0.00,weatherlink.com 1.10,2013-10-11 09:14:00,
2013-10-11 04:29:00,57.6,52.0,29.10,NW,320,0.0,3.0,82,0.00,,,0.00,weatherlink.com 1.10,2013-10-11 09:29:00,
2013-10-11 04:44:00,57.2,52.0,29.10,SW,221,1.0,1.0,84,0.00,,,0.00,weatherlink.com 1.10,2013-10-11 09:44:00,
2013-10-11 04:59:00,57.2,52.0,29.10,SSW,197,0.0,3.0,83,0.00,,,0.00,weatherlink.com 1.10,2013-10-11 09:59:00,
2013-10-11 05:14:00,57.0,52.0,29.10,SW,221,0.0,2.0,84,0.00,,,0.00,weatherlink.com 1.10,2013-10-11 10:14:00,
2013-10-11 05:29:00,56.8,52.0,29.10,SSW,213,1.0,1.0,84,0.00,,,0.00,weatherlink.com 1.10,2013-10-11 10:29:00,
2013-10-11 05:44:00,57.0,52.0,29.10,NNE,23,0.0,2.0,84,0.00,,,0.00,weatherlink.com 1.10,2013-10-11 10:44:00,
2013-10-11 05:59:00,57.3,53.0,29.10,ESE,106,1.0,4.0,84,0.00,,,0.00,weatherlink.com 1.10,2013-10-11 10:59:00,
2013-10-11 06:14:00,57.3,53.0,29.10,SW,222,0.0,3.0,84,0.00,,,0.00,weatherlink.com 1.10,2013-10-11 11:14:00,
2013-10-11 06:29:00,57.5,53.0,29.09,SSW,204,0.0,4.0,84,0.00,,,0.00,weatherlink.com 1.10,2013-10-11 11:29:00,
2013-10-11 06:44:00,57.5,53.0,29.09,West,278,0.0,2.0,84,0.00,,,0.00,weatherlink.com 1.10,2013-10-11 11:44:00,
2013-10-11 06:59:00,57.8,53.0,29.08,SE,130,1.0,5.0,84,0.00,,,0.00,weatherlink.com 1.10,2013-10-11 11:59:00,
2013-10-11 07:14:00,58.2,53.0,29.08,East,96,0.0,5.0,83,0.00,,,0.00,weatherlink.com 1.10,2013-10-11 12:14:00,
2013-10-11 07:29:00,58.3,53.0,29.07,ENE,73,0.0,6.0,83,0.00,,,0.00,weatherlink.com 1.10,2013-10-11 12:29:00,
2013-10-11 07:44:00,58.3,53.0,29.07,NE,46,2.0,5.0,83,0.00,,,0.00,weatherlink.com 1.10,2013-10-11 12:44:00,
2013-10-11 07:59:00,58.4,54.0,29.08,WSW,255,1.0,4.0,84,0.00,,,0.00,weatherlink.com 1.10,2013-10-11 12:59:00,
2013-10-11 08:14:00,58.5,54.0,29.08,ENE,65,1.0,3.0,84,0.00,,,0.00,weatherlink.com 1.10,2013-10-11 13:14:00,
2013-10-11 08:29:00,59.3,54.0,29.07,NNE,32,3.0,5.0,83,0.00,,,0.00,weatherlink.com 1.10,2013-10-11 13:29:00,
2013-10-11 08:44:00,60.4,54.0,29.06,North,11,5.0,6.0,80,0.00,,,0.00,weatherlink.com 1.10,2013-10-11 13:44:00,
2013-10-11 08:59:00,60.7,55.0,29.05,NE,53,0.0,5.0,80,0.00,,,0.00,weatherlink.com 1.10,2013-10-11 13:59:00,
2013-10-11 09:14:00,61.1,55.0,29.05,NE,43,0.0,6.0,80,0.00,,,0.00,weatherlink.com 1.10,2013-10-11 14:14:00,
2013-10-11 09:29:00,62.3,55.0,29.05,ESE,107,5.0,6.0,78,0.00,,,0.00,weatherlink.com 1.10,2013-10-11 14:29:00,
2013-10-11 09:44:00,63.7,56.0,29.04,ESE,107,2.0,8.0,76,0.00,,,0.00,weatherlink.com 1.10,2013-10-11 14:44:00,
2013-10-11 10:00:00,65.0,56.0,29.03,ESE,105,4.0,9.0,73,0.00,,,0.00,weatherlink.com 1.10,2013-10-11 15:00:00,
2013-10-11 10:15:00,66.2,57.0,29.04,ENE,61,4.0,8.0,72,0.00,,,0.00,weatherlink.com 1.10,2013-10-11 15:15:00,
2013-10-11 10:30:00,67.2,57.0,29.03,East,101,2.0,7.0,70,0.00,,,0.00,weatherlink.com 1.10,2013-10-11 15:30:00,
2013-10-11 10:45:00,68.2,57.0,29.02,East,99,2.0,8.0,68,0.00,,,0.00,weatherlink.com 1.10,2013-10-11 15:45:00,
2013-10-11 11:00:00,69.2,58.0,29.00,SE,129,1.0,8.0,67,0.00,,,0.00,weatherlink.com 1.10,2013-10-11 16:00:00,
2013-10-11 11:15:00,69.7,58.0,28.99,East,85,1.0,7.0,66,0.00,,,0.00,weatherlink.com 1.10,2013-10-11 16:15:00,
2013-10-11 11:30:00,70.6,57.0,28.99,SSE,148,2.0,9.0,63,0.00,,,0.00,weatherlink.com 1.10,2013-10-11 16:30:00,
2013-10-11 11:45:00,71.3,57.0,28.98,SSE,161,2.0,10.0,62,0.00,,,0.00,weatherlink.com 1.10,2013-10-11 16:45:00,
2013-10-11 12:00:00,72.2,58.0,28.97,ENE,70,3.0,15.0,62,0.00,,,0.00,weatherlink.com 1.10,2013-10-11 17:00:00,
2013-10-11 12:15:00,73.1,57.0,28.96,ESE,102,9.0,14.0,58,0.00,,,0.00,weatherlink.com 1.10,2013-10-11 17:15:00,
2013-10-11 12:30:00,73.6,57.0,28.96,ENE,63,6.0,13.0,56,0.00,,,0.00,weatherlink.com 1.10,2013-10-11 17:30:00,
2013-10-11 12:45:00,73.7,57.0,28.95,ENE,77,2.0,14.0,56,0.00,,,0.00,weatherlink.com 1.10,2013-10-11 17:45:00,
2013-10-11 13:00:00,73.8,57.0,28.92,WSW,243,5.0,14.0,56,0.00,,,0.00,weatherlink.com 1.10,2013-10-11 18:00:00,
2013-10-11 13:15:00,74.0,57.0,28.93,SSE,158,7.0,13.0,56,0.00,,,0.00,weatherlink.com 1.10,2013-10-11 18:15:00,
2013-10-11 13:30:00,74.7,57.0,28.92,SE,126,4.0,19.0,55,0.00,,,0.00,weatherlink.com 1.10,2013-10-11 18:30:00,
2013-10-11 13:45:00,74.0,56.0,28.91,North,352,2.0,12.0,53,0.00,,,0.00,weatherlink.com 1.10,2013-10-11 18:45:00,
2013-10-11 14:00:00,73.9,56.0,28.92,South,186,3.0,14.0,53,0.00,,,0.00,weatherlink.com 1.10,2013-10-11 19:00:00,
2013-10-11 14:15:00,73.3,56.0,28.91,ESE,107,3.0,10.0,55,0.00,,,0.00,weatherlink.com 1.10,2013-10-11 19:15:00,
2013-10-11 14:30:00,72.9,55.0,28.90,North,352,4.0,27.0,54,0.00,,,0.00,weatherlink.com 1.10,2013-10-11 19:30:00,
2013-10-11 14:45:00,72.8,56.0,28.89,NW,320,5.0,11.0,56,0.00,,,0.00,weatherlink.com 1.10,2013-10-11 19:45:00,
2013-10-11 15:00:00,73.0,56.0,28.88,SSE,152,6.0,15.0,56,0.00,,,0.00,weatherlink.com 1.10,2013-10-11 20:00:00,
2013-10-11 15:15:00,73.6,57.0,28.88,South,183,4.0,15.0,56,0.00,,,0.00,weatherlink.com 1.10,2013-10-11 20:15:00,
2013-10-11 15:30:00,74.6,57.0,28.87,West,270,2.0,14.0,54,0.00,,,0.00,weatherlink.com 1.10,2013-10-11 20:30:00,
2013-10-11 15:46:00,74.5,57.0,28.87,ESE,105,2.0,14.0,54,0.00,,,0.00,weatherlink.com 1.10,2013-10-11 20:46:00,
2013-10-11 16:01:00,74.2,56.0,28.86,NW,314,4.0,14.0,54,0.00,,,0.00,weatherlink.com 1.10,2013-10-11 21:01:00,
2013-10-11 16:16:00,75.3,57.0,28.86,North,1,5.0,13.0,53,0.00,,,0.00,weatherlink.com 1.10,2013-10-11 21:16:00,
2013-10-11 16:31:00,74.8,56.0,28.86,SE,128,4.0,11.0,52,0.00,,,0.00,weatherlink.com 1.10,2013-10-11 21:31:00,
2013-10-11 16:46:00,74.6,56.0,28.86,ENE,68,1.0,15.0,53,0.00,,,0.00,weatherlink.com 1.10,2013-10-11 21:46:00,
2013-10-11 17:01:00,74.4,56.0,28.87,East,79,1.0,11.0,53,0.00,,,0.00,weatherlink.com 1.10,2013-10-11 22:01:00,
2013-10-11 17:16:00,74.3,56.0,28.88,SE,133,1.0,10.0,53,0.00,,,0.00,weatherlink.com 1.10,2013-10-11 22:16:00,
2013-10-11 17:31:00,74.6,56.0,28.88,SE,133,5.0,10.0,52,0.00,,,0.00,weatherlink.com 1.10,2013-10-11 22:31:00,
2013-10-11 17:46:00,74.6,55.0,28.88,SE,124,3.0,12.0,51,0.00,,,0.00,weatherlink.com 1.10,2013-10-11 22:46:00,
2013-10-11 18:01:00,74.2,55.0,28.88,West,269,2.0,8.0,52,0.00,,,0.00,weatherlink.com 1.10,2013-10-11 23:01:00,
2013-10-11 18:16:00,74.2,55.0,28.89,ESE,110,4.0,11.0,52,0.00,,,0.00,weatherlink.com 1.10,2013-10-11 23:16:00,
2013-10-11 18:31:00,74.0,56.0,28.89,SE,140,3.0,9.0,53,0.00,,,0.00,weatherlink.com 1.10,2013-10-11 23:31:00,
2013-10-11 18:46:00,73.8,55.0,28.89,SE,124,3.0,10.0,53,0.00,,,0.00,weatherlink.com 1.10,2013-10-11 23:46:00,
2013-10-11 19:01:00,73.4,56.0,28.89,SSW,204,2.0,9.0,54,0.00,,,0.00,weatherlink.com 1.10,2013-10-12 00:01:00,
2013-10-11 19:16:00,73.3,56.0,28.90,SSW,201,5.0,9.0,55,0.00,,,0.00,weatherlink.com 1.10,2013-10-12 00:16:00,
2013-10-11 19:31:00,72.9,56.0,28.90,NW,313,4.0,8.0,56,0.00,,,0.00,weatherlink.com 1.10,2013-10-12 00:31:00,
2013-10-11 19:46:00,72.7,56.0,28.89,South,169,2.0,12.0,57,0.00,,,0.00,weatherlink.com 1.10,2013-10-12 00:46:00,
2013-10-11 20:01:00,72.5,56.0,28.89,West,266,5.0,11.0,57,0.00,,,0.00,weatherlink.com 1.10,2013-10-12 01:01:00,
2013-10-11 20:16:00,71.9,57.0,28.89,NE,34,7.0,11.0,59,0.00,,,0.00,weatherlink.com 1.10,2013-10-12 01:16:00,
2013-10-11 20:31:00,71.3,57.0,28.88,East,94,5.0,11.0,61,0.00,,,0.00,weatherlink.com 1.10,2013-10-12 01:31:00,
2013-10-11 20:46:00,70.9,57.0,28.88,ENE,61,2.0,8.0,62,0.00,,,0.00,weatherlink.com 1.10,2013-10-12 01:46:00,
2013-10-11 21:01:00,70.5,57.0,28.86,SE,139,3.0,10.0,62,0.00,,,0.00,weatherlink.com 1.10,2013-10-12 02:01:00,
2013-10-11 21:16:00,70.4,57.0,28.87,South,187,5.0,11.0,63,0.00,,,0.00,weatherlink.com 1.10,2013-10-12 02:16:00,
2013-10-11 21:31:00,70.2,58.0,28.87,SSW,194,4.0,10.0,65,0.00,,,0.00,weatherlink.com 1.10,2013-10-12 02:31:00,
2013-10-11 21:46:00,69.9,58.0,28.87,South,170,3.0,8.0,65,0.00,,,0.00,weatherlink.com 1.10,2013-10-12 02:46:00,
2013-10-11 22:01:00,69.9,59.0,28.87,ENE,72,9.0,18.0,68,0.00,,,0.00,weatherlink.com 1.10,2013-10-12 03:01:00,
2013-10-11 22:16:00,69.8,60.0,28.87,South,174,7.0,7.0,71,0.00,,,0.00,weatherlink.com 1.10,2013-10-12 03:16:00,
2013-10-11 22:31:00,69.7,61.0,28.87,SE,130,5.0,9.0,73,0.00,,,0.00,weatherlink.com 1.10,2013-10-12 03:31:00,
2013-10-11 22:46:00,67.1,61.0,28.91,ENE,63,2.0,12.0,80,0.09,,,0.09,weatherlink.com 1.10,2013-10-12 03:46:00,
2013-10-11 23:01:00,63.0,59.0,28.91,NE,34,2.0,5.0,87,0.11,,,0.11,weatherlink.com 1.10,2013-10-12 04:01:00,
2013-10-11 23:16:00,61.9,59.0,28.92,NE,50,0.0,4.0,89,0.12,,,0.12,weatherlink.com 1.10,2013-10-12 04:16:00,
2013-10-11 23:31:00,61.3,58.0,28.91,East,82,0.0,3.0,90,0.14,,,0.14,weatherlink.com 1.10,2013-10-12 04:31:00,
2013-10-11 23:46:00,60.8,58.0,28.92,ENE,66,0.0,1.0,90,0.05,,,0.14,weatherlink.com 1.10,2013-10-12 04:46:00,